Hourly Data Report for October 02, 2017

All times are specified in Local Standard Time (LST). Add 1 hour to adjust for Daylight Saving Time where and when it is observed.

BAKER LAKE A
NUNAVUT

64°17'56.000" N
96°04'40.000" W
18.60 m
2300503
71926
YBK

Download Data

Hourly Data (October 2017)
Hourly Data Report for October 2, 2017
Temp Definition
°C
Dew Point Temp Definition
°C
Rel Hum Definition
%
Wind Dir Definition
10's deg

Wind Spd Definition
km/h
Visibility Definition
km
Stn Press Definition
kPa
Hmdx Definition


Wind Chill Definition


Weather Definition


TIME
00:00 Legend Double Dagger 4.0 3.7 98 21 14 16.1 100.76     Rain
01:00 Legend Double Dagger 4.3 3.9 98 21 17 16.1 100.72     Rain
02:00 Legend Double Dagger 4.5 4.0 97 27 15 16.1 100.73     Rain
03:00 Legend Double Dagger 2.8 2.0 94 31 26 24.1 100.75     Cloudy
04:00 Legend Double Dagger 1.0 0.2 94 32 35 24.1 100.80     Rain
05:00 Legend Double Dagger 0.6 -0.3 94 32 36 6.4 100.86     Rain,Snow
06:00 Legend Double Dagger 0.1 -1.5 89 32 40 24.1 100.94     Cloudy
07:00 Legend Double Dagger -0.8 -2.7 87 33 34 32.2 100.97   -8 LegendNANA
08:00 Legend Double Dagger -0.9 -3.3 84 33 29 24.1 101.05   -8 LegendNANA
09:00 Legend Double Dagger -0.9 -2.9 86 33 26 24.1 101.07   -7 Cloudy
10:00 Legend Double Dagger -0.8 -3.0 85 33 26 40.2 101.08   -7 LegendNANA
11:00 Legend Double Dagger 0.0 -2.4 84 32 26 40.2 101.02   -6 LegendNANA
12:00 Legend Double Dagger 1.1 -1.0 86 29 24 40.2 100.98     Snow
13:00 Legend Double Dagger 2.4 -3.1 67 30 34 40.2 100.89     LegendNANA
14:00 Legend Double Dagger 2.3 -1.9 74 29 23 40.2 100.87     LegendNANA
15:00 Legend Double Dagger 2.4 -2.0 73 30 35 40.2 100.82     Snow
16:00 Legend Double Dagger 2.2 -1.0 79 30 27 40.2 100.81     Snow
17:00 Legend Double Dagger 1.2 -2.0 80 30 27 40.2 100.80     LegendNANA
18:00 Legend Double Dagger 0.4 -3.5 75 29 26 40.2 100.77     Mostly Cloudy
19:00 Legend Double Dagger -0.1 -3.9 76 29 35 24.1 100.75   -7 LegendNANA
20:00 Legend Double Dagger -0.5 -2.8 85 30 47 4.8 100.76   -9 Snow
21:00 Legend Double Dagger -1.8 -4.3 83 29 25 24.1 100.71   -8 Mainly Clear
22:00 Legend Double Dagger -1.2 -4.2 80 29 30 24.1 100.70   -8 Snow
23:00 Legend Double Dagger -1.6 -4.4 81 30 35 24.1 100.68   -9 LegendNANA

Notes on Data Quality.

Legend

  • E = Estimated
  • M = Missing
  • NA = Not Available
  • ‡ = Partner data that is not subject to review by the National Climate Archives
Date modified: